Météo par heure à Alikonovka

Ce jour, 13 Mai, Jeudi

Heure Température Précipitation Vent Pression Humidité
00:00 +10°C° 0 mm 2 m/s 687 mmHg 59%
01:00 +10°C° 0 mm 2 m/s 687 mmHg 55%
02:00 +10°C° 0 mm 2 m/s 687 mmHg 50%
03:00 +10°C° 0 mm 2 m/s 687 mmHg 46%
04:00 +12°C° 0 mm 2 m/s 687 mmHg 49%
05:00 +12°C° 0 mm 2 m/s 687 mmHg 52%
06:00 +13°C° 0 mm 2 m/s 687 mmHg 54%
07:00 +15°C° 0 mm 2 m/s 688 mmHg 51%
08:00 +18°C° 0 mm 1 m/s 688 mmHg 49%
09:00 +21°C° 0 mm 1 m/s 689 mmHg 46%
10:00 +21°C° 0 mm 2 m/s 689 mmHg 47%
11:00 +23°C° 0 mm 2 m/s 689 mmHg 48%
12:00 +22°C° 0 mm 3 m/s 689 mmHg 49%
13:00 +24°C° 0 mm 3 m/s 689 mmHg 52%
14:00 +24°C° 0 mm 3 m/s 689 mmHg 55%
15:00 +23°C° 0 mm 4 m/s 689 mmHg 58%
16:00 +22°C° 0 mm 3 m/s 689 mmHg 64%
17:00 +21°C° 0 mm 3 m/s 689 mmHg 71%
18:00 +20°C° 0 mm 3 m/s 689 mmHg 77%
19:00 +18°C° 0 mm 3 m/s 689 mmHg 79%
20:00 +17°C° 0 mm 2 m/s 689 mmHg 81%
21:00 +15°C° 0 mm 2 m/s 689 mmHg 83%
22:00 +15°C° 0 mm 2 m/s 689 mmHg 77%
23:00 +15°C° 0 mm 2 m/s 689 mmHg 70%

Demain, 14 Mai, Vendredi

Heure Température Précipitation Vent Pression Humidité
00:00 +15°C° 0 mm 2 m/s 688 mmHg 63%
01:00 +15°C° 0 mm 2 m/s 688 mmHg 58%
02:00 +15°C° 0 mm 2 m/s 688 mmHg 52%
03:00 +15°C° 0 mm 2 m/s 688 mmHg 47%
04:00 +16°C° 0 mm 2 m/s 689 mmHg 48%
05:00 +16°C° 0 mm 2 m/s 689 mmHg 49%
06:00 +16°C° 0 mm 2 m/s 689 mmHg 50%
07:00 +19°C° 0 mm 2 m/s 689 mmHg 46%
08:00 +23°C° 0 mm 1 m/s 689 mmHg 42%
09:00 +25°C° 0 mm 1 m/s 690 mmHg 38%
10:00 +26°C° 0 mm 1 m/s 690 mmHg 38%
11:00 +27°C° 0 mm 2 m/s 690 mmHg 38%
12:00 +28°C° 0 mm 3 m/s 690 mmHg 38%
13:00 +28°C° 0 mm 3 m/s 690 mmHg 42%
14:00 +27°C° 0 mm 3 m/s 690 mmHg 46%
15:00 +27°C° 0 mm 4 m/s 689 mmHg 49%
16:00 +26°C° 0 mm 3 m/s 689 mmHg 56%
17:00 +25°C° 0 mm 2 m/s 689 mmHg 63%
18:00 +24°C° 0 mm 2 m/s 689 mmHg 70%
19:00 +23°C° 0.1 mm 2 m/s 689 mmHg 71%
20:00 +20°C° 0.1 mm 3 m/s 689 mmHg 73%
21:00 +18°C° 0.1 mm 3 m/s 689 mmHg 74%
22:00 +18°C° 0 mm 3 m/s 689 mmHg 68%
23:00 +18°C° 0 mm 3 m/s 688 mmHg 63%

Après-demain, 15 Mai, Samedi

Heure Température Précipitation Vent Pression Humidité
00:00 +18°C° 0 mm 3 m/s 688 mmHg 58%
01:00 +17°C° 0 mm 3 m/s 688 mmHg 56%
02:00 +17°C° 0 mm 3 m/s 688 mmHg 55%
03:00 +17°C° 0 mm 3 m/s 688 mmHg 54%
04:00 +17°C° 0 mm 3 m/s 689 mmHg 55%
05:00 +18°C° 0 mm 3 m/s 689 mmHg 57%
06:00 +18°C° 0 mm 2 m/s 689 mmHg 59%
07:00 +20°C° 0 mm 2 m/s 689 mmHg 56%
08:00 +23°C° 0 mm 2 m/s 690 mmHg 52%
09:00 +25°C° 0 mm 2 m/s 690 mmHg 49%
10:00 +26°C° 0 mm 3 m/s 690 mmHg 50%
11:00 +26°C° 0 mm 3 m/s 690 mmHg 51%
12:00 +27°C° 0 mm 4 m/s 690 mmHg 52%
13:00 +26°C° 0.1 mm 3 m/s 690 mmHg 54%
14:00 +26°C° 0.1 mm 3 m/s 690 mmHg 57%
15:00 +26°C° 0.1 mm 3 m/s 690 mmHg 60%
16:00 +25°C° 1.1 mm 3 m/s 690 mmHg 67%
17:00 +23°C° 1.1 mm 2 m/s 690 mmHg 73%
18:00 +21°C° 1.1 mm 2 m/s 689 mmHg 80%
19:00 +20°C° 0.5 mm 2 m/s 689 mmHg 80%
20:00 +18°C° 0.5 mm 2 m/s 689 mmHg 80%
21:00 +17°C° 0.5 mm 2 m/s 689 mmHg 80%
22:00 +17°C° 0 mm 2 m/s 688 mmHg 78%
23:00 +17°C° 0 mm 2 m/s 688 mmHg 77%

16 Mai, Dimanche

Heure Température Précipitation Vent Pression Humidité
00:00 +16°C° 0 mm 2 m/s 688 mmHg 76%
01:00 +16°C° 0 mm 2 m/s 687 mmHg 75%
02:00 +16°C° 0 mm 2 m/s 687 mmHg 75%
03:00 +16°C° 0 mm 2 m/s 687 mmHg 74%
04:00 +16°C° 0 mm 2 m/s 687 mmHg 74%
05:00 +17°C° 0 mm 2 m/s 687 mmHg 74%
06:00 +17°C° 0 mm 2 m/s 687 mmHg 73%
07:00 +19°C° 0 mm 2 m/s 687 mmHg 69%
08:00 +21°C° 0 mm 2 m/s 686 mmHg 64%
09:00 +24°C° 0 mm 2 m/s 686 mmHg 59%
10:00 +25°C° 0 mm 3 m/s 686 mmHg 60%
11:00 +25°C° 0 mm 4 m/s 686 mmHg 60%
12:00 +26°C° 0 mm 5 m/s 686 mmHg 60%
13:00 +26°C° 0.2 mm 5 m/s 686 mmHg 62%
14:00 +25°C° 0.2 mm 5 m/s 686 mmHg 63%
15:00 +25°C° 0.2 mm 5 m/s 685 mmHg 65%
16:00 +23°C° 0.4 mm 4 m/s 685 mmHg 70%
17:00 +22°C° 0.4 mm 3 m/s 685 mmHg 76%
18:00 +21°C° 0.4 mm 3 m/s 685 mmHg 81%
19:00 +20°C° 0.1 mm 2 m/s 684 mmHg 81%
20:00 +19°C° 0.1 mm 2 m/s 684 mmHg 81%
21:00 +18°C° 0.1 mm 2 m/s 684 mmHg 81%
22:00 +18°C° 0 mm 2 m/s 684 mmHg 77%
23:00 +18°C° 0 mm 2 m/s 683 mmHg 74%

17 Mai, Lundi

Heure Température Précipitation Vent Pression Humidité
00:00 +18°C° 0 mm 2 m/s 683 mmHg 71%
01:00 +18°C° 0 mm 2 m/s 683 mmHg 69%
02:00 +17°C° 0 mm 2 m/s 683 mmHg 66%
03:00 +17°C° 0 mm 2 m/s 683 mmHg 64%
04:00 +17°C° 0 mm 2 m/s 683 mmHg 64%
05:00 +18°C° 0 mm 2 m/s 683 mmHg 64%
06:00 +18°C° 0 mm 2 m/s 683 mmHg 64%
07:00 +20°C° 0 mm 2 m/s 683 mmHg 60%
08:00 +23°C° 0 mm 1 m/s 684 mmHg 56%
09:00 +25°C° 0 mm 1 m/s 684 mmHg 52%
10:00 +25°C° 0 mm 2 m/s 684 mmHg 54%
11:00 +26°C° 0 mm 3 m/s 684 mmHg 56%
12:00 +26°C° 0 mm 4 m/s 684 mmHg 58%
13:00 +25°C° 1.4 mm 4 m/s 684 mmHg 65%
14:00 +22°C° 1.4 mm 4 m/s 685 mmHg 72%
15:00 +20°C° 1.4 mm 4 m/s 685 mmHg 79%
16:00 +19°C° 1.5 mm 3 m/s 685 mmHg 82%
17:00 +18°C° 1.5 mm 3 m/s 685 mmHg 85%
18:00 +17°C° 1.5 mm 2 m/s 686 mmHg 87%
19:00 +17°C° 0.6 mm 2 m/s 686 mmHg 88%
20:00 +16°C° 0.6 mm 2 m/s 686 mmHg 88%
21:00 +16°C° 0.6 mm 2 m/s 687 mmHg 89%
22:00 +16°C° 0.6 mm 2 m/s 687 mmHg 89%
23:00 +16°C° 0.6 mm 2 m/s 687 mmHg 89%

18 Mai, Mardi

Heure Température Précipitation Vent Pression Humidité
00:00 +16°C° 0.6 mm 2 m/s 687 mmHg 90%
01:00 +15°C° 0.1 mm 2 m/s 686 mmHg 88%
02:00 +15°C° 0.1 mm 2 m/s 686 mmHg 86%
03:00 +14°C° 0.1 mm 2 m/s 686 mmHg 84%
04:00 +15°C° 0 mm 2 m/s 687 mmHg 86%
05:00 +15°C° 0 mm 2 m/s 687 mmHg 87%
06:00 +15°C° 0 mm 2 m/s 688 mmHg 89%
07:00 +16°C° 0 mm 2 m/s 688 mmHg 86%
08:00 +17°C° 0 mm 2 m/s 689 mmHg 82%
09:00 +18°C° 0 mm 3 m/s 689 mmHg 78%
10:00 +18°C° 0.5 mm 3 m/s 689 mmHg 79%
11:00 +18°C° 0.5 mm 3 m/s 689 mmHg 79%
12:00 +18°C° 0.5 mm 3 m/s 690 mmHg 80%
13:00 +18°C° 0.8 mm 2 m/s 690 mmHg 81%
14:00 +18°C° 0.8 mm 2 m/s 690 mmHg 82%
15:00 +18°C° 0.8 mm 2 m/s 690 mmHg 83%
16:00 +19°C° 0.6 mm 1 m/s 690 mmHg 84%
17:00 +18°C° 0.6 mm 1 m/s 690 mmHg 85%
18:00 +18°C° 0.6 mm 1 m/s 691 mmHg 86%
19:00 +16°C° 0.1 mm 1 m/s 691 mmHg 88%
20:00 +15°C° 0.1 mm 1 m/s 690 mmHg 89%
21:00 +14°C° 0.1 mm 1 m/s 690 mmHg 91%
22:00 +14°C° 0 mm 1 m/s 690 mmHg 90%
23:00 +14°C° 0 mm 1 m/s 690 mmHg 89%
Voir plus

Nous avons besoin de votre consentement

Meteoprog et ses fournisseurs de services peuvent stocker et accéder à des données personnelles telles que des cookies, des identifiants d'appareils ou d'autres technologies similaires sur votre appareil et traiter ces données pour personnaliser le contenu et les publicités, ainsi que pour fournir des fonctionnalités de médias sociaux et analyser le trafic.

  • Stocker et/ou accéder à des informations sur votre appareil

    Des cookies, des identifiants d'appareils ou d'autres informations peuvent être stockés ou accessibles sur votre appareil aux fins indiquées ci-dessus.

  • Annonces et contenus personnalisés, mesure des annonces et des contenus, connaissance de l'audience et développement de produits

    Les annonces et le contenu peuvent être personnalisés en fonction d'un profil. D'autres données peuvent être ajoutées pour mieux personnaliser les annonces et le contenu. Les performances des publicités et du contenu peuvent être mesurées. Il est possible d'obtenir des informations sur le public qui a vu les publicités et le contenu. Ces données peuvent être utilisées pour développer ou améliorer l'expérience de l'utilisateur, les systèmes et les logiciels.

En cliquant sur "J'accepte", vous autorisez l'utilisation de cookies, des identifiants d'appareils, des balises web ou d'autres technologies similaires. Vos paramètres peuvent être modifiés dans le navigateur de votre appareil.

Dans certains cas, des intérêts légitimes peuvent être invoqués plutôt qu'un consentement. Vous pouvez en savoir plus à ce sujet dans notre Politique de confidentialité et de cookies.